Regional Weather Roundup
Issued by NWS Goodland, KS

Home | Current Version | Previous Version | Graphics & Text | Print | Product List | Glossary On
Versions: 1 2 3 4 5 6 7 8 9 10 11 12 13 14 15 16 17 18 19 20 21 22 23 24 25 26 27 28 29 30 31 32 33 34 35 36 37 38 39 40 41 42 43 44 45 46 47 48 49 50
000
ASUS43 KGLD 031808
RWRGLD

GOODLAND FORECAST AREA HOURLY WEATHER ROUNDUP
NATIONAL WEATHER SERVICE GOODLAND KS
1200 PM MDT SUN MAY 03 2015

...OFFICIAL OBSERVATIONS...

CITY           SKY/WX    TMP DP  RH WIND       PRES   REMARKS
GOODLAND KS    SUNNY     80  37  21 VRB6      29.89S
HILL CITY KS   MOSUNNY   86  43  22 MISG      29.81S
IMPERIAL NEB   SUNNY     81  40  23 NW18G25   29.85S
MCCOOK NEB     SUNNY     85  45  24 W12G18    29.81F
AKRON CO       SUNNY     74  38  27 N13       29.96S
BURLINGTON CO  MOSUNNY   80  38  22 N8        29.92F
LIMON CO       SUNNY     75  30  19 MISG      29.98F
$$

...UNOFFICIAL OBSERVATIONS...

CITY           SKY/WX    TMP DP  RH WIND       PRES   REMARKS
COLBY KS       SUNNY     84  45  24 W3        29.87S
GOVE KS          N/A     86  32  14 MISG        N/A
LENORA KS        N/A     83  32  16 MISG        N/A
NORTON KS      SUNNY     88  32  13 S9        29.80
SHARON SPRINGS   N/A     80  45  28 MISG        N/A
KIT CARSON CO    N/A     79  40  24 MISG        N/A
YUMA CO          N/A     76  40  27 N9G20       N/A
$$



USA.gov is the U.S. government's official web portal to all federal, state and local government web resources and services.